N583VC KLAF-KMGY

Flight info

Callsign N583VC
Flight time 0h 40m
Altitude 19000
Route WOBUL
Aircraft B60T/L-SDFGRY/C

Departure

Time 2026-04-29 23:09
Airport Purdue University Airport (KLAF)

Arrival

Time 2026-04-29 23:49
Airport Dayton-Wright Brothers Airport (KMGY)
Time Latitude Longitude Altitude Speed Heading
2026-04-29 22:54 40.41536 -86.93041 600 ft 0 kts 269°
2026-04-29 22:59 40.41536 -86.93044 600 ft 1 kts 269°
2026-04-29 22:59 40.41536 -86.93055 600 ft 3 kts 269°
2026-04-29 22:59 40.41520 -86.93113 600 ft 16 kts 238°
2026-04-29 23:00 40.41455 -86.93216 600 ft 11 kts 212°
2026-04-29 23:00 40.41385 -86.93237 600 ft 10 kts 184°
2026-04-29 23:00 40.41317 -86.93279 600 ft 11 kts 229°
2026-04-29 23:00 40.41271 -86.93349 600 ft 7 kts 139°
2026-04-29 23:01 40.41319 -86.93279 600 ft 14 kts 49°
2026-04-29 23:01 40.41379 -86.93291 613 ft 13 kts 294°
2026-04-29 23:01 40.41435 -86.93350 600 ft 10 kts 25°
2026-04-29 23:01 40.41496 -86.93254 600 ft 13 kts 51°
2026-04-29 23:02 40.41551 -86.93162 600 ft 10 kts 53°
2026-04-29 23:02 40.41582 -86.93109 600 ft 5 kts 77°
2026-04-29 23:02 40.41582 -86.93105 600 ft 0 kts 94°
2026-04-29 23:02 40.41582 -86.93098 600 ft 0 kts 96°
2026-04-29 23:03 40.41582 -86.93096 600 ft 2 kts 98°
2026-04-29 23:03 40.41568 -86.93000 600 ft 17 kts 97°
2026-04-29 23:04 40.41534 -86.92945 599 ft 13 kts 256°
2026-04-29 23:04 40.41527 -86.93059 600 ft 14 kts 265°
2026-04-29 23:04 40.41457 -86.93014 600 ft 19 kts 139°
2026-04-29 23:04 40.41348 -86.92895 600 ft 20 kts 142°
2026-04-29 23:05 40.41245 -86.92787 600 ft 18 kts 146°
2026-04-29 23:05 40.41186 -86.92761 600 ft 0 kts 174°
2026-04-29 23:07 40.41172 -86.92759 601 ft 8 kts 177°
2026-04-29 23:07 40.41120 -86.92837 601 ft 15 kts 276°
2026-04-29 23:08 40.41123 -86.92859 601 ft 0 kts 279°
2026-04-29 23:08 40.41136 -86.92963 602 ft 45 kts 279°
2026-04-29 23:08 40.41212 -86.93681 642 ft 105 kts 284°
2026-04-29 23:08 40.41354 -86.94747 922 ft 131 kts 286°
2026-04-29 23:09 40.41549 -86.95908 1638 ft 128 kts 286°
2026-04-29 23:09 40.41720 -86.97050 2322 ft 127 kts 278°
2026-04-29 23:09 40.41388 -86.98130 2955 ft 142 kts 229°
2026-04-29 23:09 40.40398 -86.98470 3560 ft 163 kts 175°
2026-04-29 23:10 40.39441 -86.97669 4201 ft 170 kts 123°
2026-04-29 23:10 40.39076 -86.96222 4853 ft 167 kts 97°
2026-04-29 23:10 40.38846 -86.94726 5469 ft 167 kts 98°
2026-04-29 23:10 40.38619 -86.93237 6068 ft 165 kts 97°
2026-04-29 23:11 40.38399 -86.91759 6626 ft 166 kts 98°
2026-04-29 23:11 40.38185 -86.90270 7162 ft 167 kts 97°
2026-04-29 23:11 40.37978 -86.88763 7675 ft 169 kts 97°
2026-04-29 23:11 40.37775 -86.87235 8199 ft 171 kts 97°
2026-04-29 23:12 40.37578 -86.85685 8684 ft 174 kts 97°
2026-04-29 23:12 40.37385 -86.84100 9170 ft 177 kts 97°
2026-04-29 23:12 40.37197 -86.82490 9673 ft 179 kts 97°
2026-04-29 23:12 40.37013 -86.80864 10137 ft 181 kts 97°
2026-04-29 23:13 40.36833 -86.79221 10585 ft 183 kts 97°
2026-04-29 23:13 40.36656 -86.77565 11028 ft 184 kts 97°
2026-04-29 23:13 40.36483 -86.75892 11471 ft 186 kts 97°
2026-04-29 23:13 40.36314 -86.74228 11918 ft 187 kts 97°
2026-04-29 23:14 40.36144 -86.72530 12360 ft 189 kts 97°
2026-04-29 23:14 40.36052 -86.70815 12832 ft 189 kts 86°
2026-04-29 23:14 40.35902 -86.69052 13140 ft 201 kts 107°
2026-04-29 23:14 40.35481 -86.67270 13488 ft 209 kts 111°
2026-04-29 23:15 40.35044 -86.65429 13855 ft 214 kts 109°
2026-04-29 23:15 40.34629 -86.63550 14215 ft 214 kts 108°
2026-04-29 23:15 40.34220 -86.61665 14542 ft 215 kts 109°
2026-04-29 23:15 40.33804 -86.59773 14860 ft 217 kts 109°
2026-04-29 23:16 40.33380 -86.57858 15189 ft 221 kts 109°
2026-04-29 23:16 40.32950 -86.55913 15536 ft 224 kts 110°
2026-04-29 23:16 40.32514 -86.53938 15886 ft 226 kts 110°
2026-04-29 23:16 40.32081 -86.51981 16230 ft 228 kts 110°
2026-04-29 23:17 40.31638 -86.49979 16574 ft 229 kts 110°
2026-04-29 23:17 40.31190 -86.47959 16924 ft 231 kts 110°
2026-04-29 23:17 40.30740 -86.45931 17269 ft 233 kts 111°
2026-04-29 23:17 40.30287 -86.43890 17613 ft 234 kts 111°
2026-04-29 23:18 40.29830 -86.41832 17952 ft 236 kts 111°
2026-04-29 23:18 40.29367 -86.39752 18295 ft 238 kts 111°
2026-04-29 23:18 40.28903 -86.37671 18611 ft 239 kts 111°
2026-04-29 23:18 40.28437 -86.35578 18936 ft 240 kts 111°
2026-04-29 23:19 40.27948 -86.33409 19003 ft 258 kts 111°
2026-04-29 23:19 40.27433 -86.31124 19011 ft 273 kts 110°
2026-04-29 23:19 40.26887 -86.28680 19010 ft 285 kts 110°
2026-04-29 23:19 40.26323 -86.26152 19007 ft 294 kts 110°
2026-04-29 23:20 40.25741 -86.23558 19003 ft 300 kts 110°
2026-04-29 23:20 40.25149 -86.20919 19003 ft 304 kts 110°
2026-04-29 23:20 40.24547 -86.18244 19006 ft 308 kts 110°
2026-04-29 23:20 40.23940 -86.15544 19001 ft 309 kts 110°
2026-04-29 23:21 40.23340 -86.12877 19001 ft 309 kts 110°
2026-04-29 23:21 40.22730 -86.10171 19049 ft 310 kts 110°
2026-04-29 23:21 40.22118 -86.07464 19055 ft 310 kts 110°
2026-04-29 23:21 40.21506 -86.04754 19058 ft 310 kts 110°
2026-04-29 23:22 40.20892 -86.02040 19064 ft 311 kts 110°
2026-04-29 23:22 40.20278 -85.99329 19064 ft 311 kts 110°
2026-04-29 23:22 40.19663 -85.96622 18994 ft 311 kts 110°
2026-04-29 23:22 40.19047 -85.93908 18992 ft 312 kts 110°
2026-04-29 23:23 40.18428 -85.91188 18993 ft 313 kts 110°
2026-04-29 23:23 40.17807 -85.88461 18979 ft 313 kts 110°
2026-04-29 23:23 40.17182 -85.85720 18974 ft 314 kts 110°
2026-04-29 23:23 40.16556 -85.82975 18977 ft 316 kts 110°
2026-04-29 23:24 40.15935 -85.80261 18977 ft 316 kts 110°
2026-04-29 23:24 40.15306 -85.77511 18977 ft 316 kts 110°
2026-04-29 23:24 40.14677 -85.74761 18978 ft 316 kts 110°
2026-04-29 23:24 40.14045 -85.72008 18978 ft 316 kts 110°
2026-04-29 23:25 40.13414 -85.69261 18978 ft 316 kts 110°
2026-04-29 23:25 40.12783 -85.66516 18979 ft 315 kts 111°
2026-04-29 23:25 40.12151 -85.63773 18979 ft 316 kts 110°
2026-04-29 23:25 40.11516 -85.61012 18980 ft 316 kts 111°
2026-04-29 23:26 40.10889 -85.58302 18981 ft 316 kts 111°
2026-04-29 23:26 40.10254 -85.55549 18979 ft 317 kts 111°
2026-04-29 23:26 40.09616 -85.52793 18980 ft 317 kts 111°
2026-04-29 23:26 40.08979 -85.50041 18980 ft 317 kts 111°
2026-04-29 23:27 40.08341 -85.47290 18978 ft 316 kts 111°
2026-04-29 23:27 40.07704 -85.44542 18853 ft 317 kts 111°
2026-04-29 23:27 40.07061 -85.41783 18633 ft 318 kts 111°
2026-04-29 23:27 40.06417 -85.39014 18437 ft 319 kts 111°
2026-04-29 23:28 40.05772 -85.36245 18237 ft 319 kts 111°
2026-04-29 23:28 40.05127 -85.33478 18018 ft 318 kts 111°
2026-04-29 23:28 40.04481 -85.30716 17785 ft 317 kts 111°
2026-04-29 23:28 40.03840 -85.27972 17550 ft 315 kts 111°
2026-04-29 23:29 40.03201 -85.25242 17276 ft 314 kts 111°
2026-04-29 23:29 40.02563 -85.22524 17012 ft 313 kts 111°
2026-04-29 23:29 40.01925 -85.19807 16751 ft 313 kts 110°
2026-04-29 23:29 40.01285 -85.17085 16496 ft 312 kts 110°
2026-04-29 23:30 40.00657 -85.14412 16252 ft 311 kts 110°
2026-04-29 23:30 40.00024 -85.11722 16011 ft 309 kts 110°
2026-04-29 23:30 39.99399 -85.09069 15767 ft 302 kts 110°
2026-04-29 23:30 39.98789 -85.06482 15520 ft 295 kts 110°
2026-04-29 23:31 39.98191 -85.03950 15258 ft 290 kts 111°
2026-04-29 23:31 39.97599 -85.01452 15008 ft 290 kts 111°
2026-04-29 23:31 39.97000 -84.98932 14773 ft 291 kts 110°
2026-04-29 23:31 39.96407 -84.96425 14540 ft 289 kts 110°
2026-04-29 23:32 39.95817 -84.93933 14304 ft 286 kts 110°
2026-04-29 23:32 39.95230 -84.91465 14067 ft 284 kts 110°
2026-04-29 23:32 39.94654 -84.89039 14004 ft 276 kts 110°
2026-04-29 23:32 39.94096 -84.86687 13996 ft 269 kts 110°
2026-04-29 23:33 39.93545 -84.84377 13995 ft 265 kts 111°
2026-04-29 23:33 39.92999 -84.82093 13999 ft 267 kts 111°
2026-04-29 23:33 39.92438 -84.79754 14000 ft 274 kts 110°
2026-04-29 23:33 39.91873 -84.77391 14004 ft 279 kts 110°
2026-04-29 23:34 39.91293 -84.74966 14013 ft 282 kts 110°
2026-04-29 23:34 39.90705 -84.72508 14003 ft 285 kts 110°
2026-04-29 23:34 39.90110 -84.70029 13933 ft 290 kts 110°
2026-04-29 23:34 39.89501 -84.67502 13806 ft 293 kts 110°
2026-04-29 23:35 39.88895 -84.64971 13662 ft 292 kts 110°
2026-04-29 23:35 39.88194 -84.62529 13496 ft 276 kts 126°
2026-04-29 23:35 39.86944 -84.60842 13260 ft 246 kts 160°
2026-04-29 23:35 39.85388 -84.60179 12720 ft 230 kts 184°
2026-04-29 23:36 39.83842 -84.59907 12330 ft 223 kts 179°
2026-04-29 23:36 39.82366 -84.59353 11938 ft 225 kts 169°
2026-04-29 23:36 39.80909 -84.58624 11554 ft 223 kts 168°
2026-04-29 23:36 39.79456 -84.57923 11173 ft 226 kts 169°
2026-04-29 23:37 39.77960 -84.57238 10823 ft 230 kts 169°
2026-04-29 23:37 39.76447 -84.56540 10479 ft 232 kts 168°
2026-04-29 23:37 39.74930 -84.55835 10149 ft 232 kts 167°
2026-04-29 23:37 39.73413 -84.55131 9805 ft 231 kts 167°
2026-04-29 23:38 39.71903 -84.54431 9431 ft 230 kts 167°
2026-04-29 23:38 39.70399 -84.53735 9048 ft 229 kts 167°
2026-04-29 23:38 39.68901 -84.53042 8683 ft 228 kts 167°
2026-04-29 23:38 39.67404 -84.52350 8316 ft 228 kts 167°
2026-04-29 23:39 39.65907 -84.51658 7955 ft 228 kts 167°
2026-04-29 23:39 39.64412 -84.50967 7603 ft 228 kts 166°
2026-04-29 23:39 39.62922 -84.50280 7262 ft 227 kts 166°
2026-04-29 23:39 39.61437 -84.49594 6936 ft 226 kts 166°
2026-04-29 23:40 39.59961 -84.48913 6638 ft 225 kts 166°
2026-04-29 23:40 39.58490 -84.48235 6328 ft 224 kts 165°
2026-04-29 23:40 39.57025 -84.47559 6013 ft 224 kts 165°
2026-04-29 23:40 39.55560 -84.46884 5670 ft 223 kts 165°
2026-04-29 23:41 39.54112 -84.46218 5355 ft 223 kts 165°
2026-04-29 23:41 39.52649 -84.45544 5051 ft 223 kts 165°
2026-04-29 23:41 39.51180 -84.44867 4780 ft 224 kts 164°
2026-04-29 23:41 39.49711 -84.44193 4460 ft 225 kts 164°
2026-04-29 23:42 39.48246 -84.43519 4113 ft 222 kts 163°
2026-04-29 23:42 39.46798 -84.42852 3745 ft 218 kts 163°
2026-04-29 23:42 39.45419 -84.42126 3361 ft 213 kts 151°
2026-04-29 23:42 39.44322 -84.40882 3115 ft 203 kts 128°
2026-04-29 23:43 39.43641 -84.39361 3105 ft 189 kts 109°
2026-04-29 23:43 39.43167 -84.37816 3104 ft 184 kts 110°
2026-04-29 23:43 39.42678 -84.36294 3076 ft 182 kts 110°
2026-04-29 23:43 39.42229 -84.34775 3070 ft 179 kts 100°
2026-04-29 23:44 39.42197 -84.33215 3070 ft 168 kts 73°
2026-04-29 23:44 39.42581 -84.31901 3071 ft 147 kts 49°
2026-04-29 23:44 39.43218 -84.30939 3077 ft 136 kts 30°
2026-04-29 23:44 39.44006 -84.30325 3077 ft 129 kts 13°
2026-04-29 23:45 39.44841 -84.29899 3074 ft 129 kts 14°
2026-04-29 23:45 39.45683 -84.29454 3080 ft 134 kts 14°
2026-04-29 23:45 39.46543 -84.29001 3090 ft 137 kts 14°
2026-04-29 23:45 39.47429 -84.28532 3098 ft 139 kts 13°
2026-04-29 23:46 39.48335 -84.28056 3075 ft 142 kts 14°
2026-04-29 23:46 39.49249 -84.27573 2915 ft 142 kts 14°
2026-04-29 23:46 39.50178 -84.27086 2722 ft 146 kts 15°
2026-04-29 23:46 39.51126 -84.26584 2519 ft 148 kts 15°
2026-04-29 23:47 39.52071 -84.26084 2317 ft 146 kts 14°
2026-04-29 23:47 39.53010 -84.25590 2118 ft 146 kts 15°
2026-04-29 23:47 39.53942 -84.25095 1928 ft 141 kts 15°
2026-04-29 23:47 39.54844 -84.24621 1728 ft 139 kts 15°
2026-04-29 23:48 39.55666 -84.24184 1525 ft 118 kts 14°
2026-04-29 23:48 39.56159 -84.23922 1428 ft 114 kts 17°
2026-04-29 23:48 39.57110 -84.23430 1258 ft 105 kts 15°
2026-04-29 23:48 39.57762 -84.23078 1076 ft 98 kts 11°
2026-04-29 23:49 39.58182 -84.22862 979 ft 95 kts 12°
2026-04-29 23:49 39.58712 -84.22588 949 ft 60 kts 22°
2026-04-29 23:49 39.59175 -84.22340 950 ft 50 kts 22°
2026-04-29 23:49 39.59378 -84.22230 953 ft 41 kts 22°
2026-04-29 23:50 39.59522 -84.22196 957 ft 12 kts 300°
2026-04-29 23:50 39.59527 -84.22314 958 ft 8 kts 269°
2026-04-29 23:50 39.59527 -84.22336 958 ft 4 kts 269°
2026-04-29 23:51 39.59526 -84.22423 960 ft 16 kts 270°
2026-04-29 23:51 39.59526 -84.22551 962 ft 11 kts 268°
2026-04-29 23:51 39.59526 -84.22665 960 ft 10 kts 267°
2026-04-29 23:51 39.59481 -84.22720 956 ft 16 kts 185°
2026-04-29 23:52 39.59369 -84.22731 955 ft 13 kts 182°
2026-04-29 23:52 39.59309 -84.22760 954 ft 5 kts 267°
2026-04-29 23:52 39.59309 -84.22768 955 ft 0 kts 269°